H1 CPF 2 NER 2021 5 7 9 127 01 glonass121 H2 1000702 9121 36401 2021 5 7 0 0 0 2021 5 10 23 45 0 900 1 1 0 0 0 1 H9 10 0 59341 0.00000 0 -15115681.458 -2256026.365 20371621.553 10 0 59341 900.00000 0 -12807920.714 -3478580.565 21742399.853 10 0 59341 1800.00000 0 -10482406.052 -4952697.427 22689193.893 10 0 59341 2700.00000 0 -8206164.674 -6653942.772 23193894.811 10 0 59341 3600.00000 0 -6041417.283 -8545989.831 23247053.364 10 0 59341 4500.00000 0 -4043153.557 -10581975.120 22848035.239 10 0 59341 5400.00000 0 -2257032.777 -12706307.113 22005002.434 10 0 59341 6300.00000 0 -717695.060 -14856850.596 20734723.427 10 0 59341 7200.00000 0 552449.367 -16967394.125 19062218.149 10 0 59341 8100.00000 0 1543906.073 -18970297.045 17020246.725 10 0 59341 9000.00000 0 2260232.849 -20799205.803 14648653.543 10 0 59341 9900.00000 0 2717624.869 -22391727.001 11993580.661 10 0 59341 10800.00000 0 2943969.525 -23691947.283 9106566.525 10 0 59341 11700.00000 0 2977413.485 -24652696.919 6043547.653 10 0 59341 12600.00000 0 2864504.126 -25237464.938 2863782.475 10 0 59341 13500.00000 0 2657984.573 -25421888.281 -371282.605 10 0 59341 14400.00000 0 2414335.253 -25194755.002 -3599184.073 10 0 59341 15300.00000 0 2191164.737 -24558481.435 -6757627.801 10 0 59341 16200.00000 0 2044558.452 -23529044.601 -9785669.924 10 0 59341 17100.00000 0 2026495.253 -22135373.097 -12624871.194 10 0 59341 18000.00000 0 2182438.856 -20418221.550 -15220404.267 10 0 59341 18900.00000 0 2549204.019 -18428574.390 -17522094.502 10 0 59341 19800.00000 0 3153186.282 -16225643.590 -19485375.859 10 0 59341 20700.00000 0 4009029.412 -13874541.392 -21072144.772 10 0 59341 21600.00000 0 5118787.280 -11443722.178 -22251496.576 10 0 59341 22500.00000 0 6471617.026 -9002297.098 -23000330.688 10 0 59341 23400.00000 0 8044018.974 -6617330.692 -23303812.707 10 0 59341 24300.00000 0 9800616.609 -4351229.827 -23155683.721 10 0 59341 25200.00000 0 11695447.860 -2259332.167 -22558409.381 10 0 59341 26100.00000 0 13673717.542 -387794.043 -21523163.861 10 0 59341 27000.00000 0 15673941.405 1228134.084 -20069646.551 10 0 59341 27900.00000 0 17630395.181 2565371.630 -18225732.279 10 0 59341 28800.00000 0 19475768.226 3613756.933 -16026959.120 10 0 59341 29700.00000 0 21143911.631 4376248.131 -13515861.182 10 0 59341 30600.00000 0 22572565.398 4868565.589 -10741157.159 10 0 59341 31500.00000 0 23705948.808 5118289.296 -7756809.124 10 0 59341 32400.00000 0 24497102.838 5163448.361 -4620969.177 10 0 59341 33300.00000 0 24909883.142 5050662.035 -1394834.762 10 0 59341 34200.00000 0 24920516.463 4832911.679 1858563.794 10 0 59341 35100.00000 0 24518651.859 4567039.804 5075617.973 10 0 59341 36000.00000 0 23707859.962 4311084.776 8193410.992 10 0 59341 36900.00000 0 22505557.573 4121567.347 11150975.224 10 0 59341 37800.00000 0 20942360.186 4050847.502 13890509.673 10 0 59341 38700.00000 0 19060890.139 4144666.995 16358531.110 10 0 59341 39600.00000 0 16914092.020 4439984.541 18506934.066 10 0 59341 40500.00000 0 14563128.212 4963197.456 20293937.577 10 0 59341 41400.00000 0 12074945.406 5728826.188 21684899.467 10 0 59341 42300.00000 0 9519616.630 6738717.545 22652982.360 10 0 59341 43200.00000 0 6967572.107 7981799.633 23179659.369 10 0 59341 44100.00000 0 4486836.074 9434397.486 23255051.157 10 0 59341 45000.00000 0 2140385.428 11061094.276 22878089.824 10 0 59341 45900.00000 0 -16260.260 12816099.932 22056508.777 10 0 59341 46800.00000 0 -1937118.646 14645067.873 20806661.192 10 0 59341 47700.00000 0 -3587410.311 16487282.109 19153172.923 10 0 59341 48600.00000 0 -4944744.287 18278122.150 17128438.669 10 0 59341 49500.00000 0 -5999777.878 19951702.273 14771972.864 10 0 59341 50400.00000 0 -6756327.208 21443575.083 12129629.146 10 0 59341 51300.00000 0 -7230927.778 22693387.418 9252704.309 10 0 59341 52200.00000 0 -7451866.817 23647379.181 6196944.294 10 0 59341 53100.00000 0 -7457730.557 24260622.621 3021471.354 10 0 59341 54000.00000 0 -7295529.214 24498910.652 -212347.585 10 0 59341 54900.00000 0 -7018479.197 24340217.403 -3442070.524 10 0 59341 55800.00000 0 -6683535.661 23775671.742 -6605366.680 10 0 59341 56700.00000 0 -6348778.336 22810004.438 -9641198.194 10 0 59341 57600.00000 0 -6070759.159 21461450.862 -12490976.302 10 0 59341 58500.00000 0 -5901921.572 19761113.136 -15099671.438 10 0 59341 59400.00000 0 -5888198.337 17751807.333 -17416857.756 10 0 59341 60300.00000 0 -6066887.483 15486441.975 -19397673.608 10 0 59341 61200.00000 0 -6464894.847 13025992.979 -21003680.800 10 0 59341 62100.00000 0 -7097417.003 10437156.485 -22203607.078 10 0 59341 63000.00000 0 -7967120.832 7789774.074 -22973958.005 10 0 59341 63900.00000 0 -9063855.967 5154134.574 -23299486.240 10 0 59341 64800.00000 0 -10364914.925 2598261.967 -23173508.444 10 0 59341 65700.00000 0 -11835833.429 185300.120 -22598062.267 10 0 59341 66600.00000 0 -13431701.035 -2028897.998 -21583898.378 10 0 59341 67500.00000 0 -15098930.941 -3997876.684 -20150305.306 10 0 59341 68400.00000 0 -16777418.117 -5686291.162 -18324767.718 10 0 59341 69300.00000 0 -18402997.835 -7071155.774 -16142462.054 10 0 59341 70200.00000 0 -19910103.047 -8142572.826 -13645596.709 10 0 59341 71100.00000 0 -21234509.423 -8903909.669 -10882607.440 10 0 59341 72000.00000 0 -22316051.806 -9371414.778 -7907222.183 10 0 59341 72900.00000 0 -23101195.893 -9573287.693 -4777412.843 10 0 59341 73800.00000 0 -23545354.099 -9548241.447 -1554254.622 10 0 59341 74700.00000 0 -23614844.703 -9343618.488 1699283.634 10 0 59341 75600.00000 0 -23288408.359 -9013141.068 4919592.642 10 0 59341 76500.00000 0 -22558214.963 -8614393.548 8043692.479 10 0 59341 77400.00000 0 -21430316.099 -8206146.125 11010491.253 10 0 59341 78300.00000 0 -19924522.595 -7845636.744 13762005.176 10 0 59341 79200.00000 0 -18073711.972 -7585929.731 16244513.537 10 0 59341 80100.00000 0 -15922595.665 -7473466.081 18409623.738 10 0 59341 81000.00000 0 -13525999.365 -7545911.558 20215224.078 10 0 59341 81900.00000 0 -10946730.735 -7830395.221 21626304.955 10 0 59341 82800.00000 0 -8253126.259 -8342213.370 22615632.503 10 0 59341 83700.00000 0 -5516382.052 -9084053.294 23164262.401 10 0 59341 84600.00000 0 -2807781.778 -10045768.316 23261885.393 10 0 59341 85500.00000 0 -195938.367 -11204711.757 22906999.755 10 0 59342 0.00000 0 2255835.636 -12526613.557 22106909.744 10 0 59342 900.00000 0 4491920.596 -13966960.694 20877552.291 10 0 59342 1800.00000 0 6466447.988 -15472820.861 19243158.022 10 0 59342 2700.00000 0 8144940.615 -16985032.085 17235754.771 10 0 59342 3600.00000 0 9505471.495 -18440664.987 14894525.321 10 0 59342 4500.00000 0 10539295.808 -19775654.519 12265032.937 10 0 59342 5400.00000 0 11250934.126 -20927491.368 9398330.564 10 0 59342 6300.00000 0 11657706.925 -21837861.481 6349971.147 10 0 59342 7200.00000 0 11788742.929 -22455124.774 3178938.162 10 0 59342 8100.00000 0 11683505.158 -22736531.204 -53483.656 10 0 59342 9000.00000 0 11389897.888 -22650083.433 -3284876.603 10 0 59342 9900.00000 0 10962034.409 -22175969.931 -6452876.011 10 0 59342 10800.00000 0 10457758.950 -21307510.006 -9496352.747 10 0 59342 11700.00000 0 9936025.795 -20051571.987 -12356571.172 10 0 59342 12600.00000 0 9454244.103 -18428447.165 -14978302.023 10 0 59342 13500.00000 0 9065698.270 -16471183.935 -17310870.623 10 0 59342 14400.00000 0 8817150.486 -14224408.274 -19309121.896 10 0 59342 15300.00000 0 8746724.892 -11742677.364 -20934284.948 10 0 59342 16200.00000 0 8882161.495 -9088432.019 -22154721.571 10 0 59342 17100.00000 0 9239513.288 -6329629.739 -22946544.749 10 0 59342 18000.00000 0 9822342.271 -3537153.627 -23294095.108 10 0 59342 18900.00000 0 10621450.100 -782101.723 -23190265.411 10 0 59342 19800.00000 0 11615157.376 1866933.188 -22636665.442 10 0 59342 20700.00000 0 12770123.140 4346481.917 -21643622.137 10 0 59342 21600.00000 0 14042673.720 6600607.471 -20230012.570 10 0 59342 22500.00000 0 15380588.518 8583003.631 -18422930.299 10 0 59342 23400.00000 0 16725270.615 10258695.116 -16257188.796 10 0 59342 24300.00000 0 18014212.989 11605266.883 -13774669.032 10 0 59342 25200.00000 0 19183657.585 12613569.243 -11023521.680 10 0 59342 26100.00000 0 20171335.037 13287867.231 -8057238.013 10 0 59342 27000.00000 0 20919168.183 13645426.333 -4933606.829 10 0 59342 27900.00000 0 21375822.998 13715550.934 -1713577.879 10 0 59342 28800.00000 0 21498996.141 13538115.763 1539944.895 10 0 59342 29700.00000 0 21257339.150 13161653.115 4763354.945 10 0 59342 30600.00000 0 20631934.637 12641078.406 7893612.682 10 0 59342 31500.00000 0 19617259.321 12035152.793 10869505.266 10 0 59342 32400.00000 0 18221591.126 11403793.421 13632869.184 10 0 59342 33300.00000 0 16466842.051 10805348.459 16129749.024 10 0 59342 34200.00000 0 14387823.786 10293955.505 18311467.490 10 0 59342 35100.00000 0 12030977.830 9917097.819 20135584.207 10 0 59342 36000.00000 0 9452624.999 9713463.657 21566723.845 10 0 59342 36900.00000 0 6716809.829 9711200.093 22577257.333 10 0 59342 37800.00000 0 3892832.185 9926634.968 23147823.786 10 0 59342 38700.00000 0 1052571.036 10363519.848 23267684.438 10 0 59342 39600.00000 0 -1732286.583 11012824.036 22934903.668 10 0 59342 40500.00000 0 -4392995.540 11853085.994 22156355.942 10 0 59342 41400.00000 0 -6866367.574 12851304.812 20947560.930 10 0 59342 42300.00000 0 -9097143.819 13964331.749 19332352.357 10 0 59342 43200.00000 0 -11040028.687 15140701.269 17342389.125 10 0 59342 44100.00000 0 -12661303.583 16322823.120 15016519.898 10 0 59342 45000.00000 0 -13939956.856 17449442.561 12400014.820 10 0 59342 45900.00000 0 -14868286.758 18458265.406 9543680.038 10 0 59342 46800.00000 0 -15451955.997 19288638.342 6502872.461 10 0 59342 47700.00000 0 -15709498.891 19884173.294 3336433.725 10 0 59342 48600.00000 0 -15671304.457 20195207.428 105563.346 10 0 59342 49500.00000 0 -15378119.895 20180997.457 -3127348.211 10 0 59342 50400.00000 0 -14879138.114 19811558.097 -6299905.237 10 0 59342 51300.00000 0 -14229749.604 19069069.160 -9350890.008 10 0 59342 52200.00000 0 -13489052.237 17948793.349 -12221422.505 10 0 59342 53100.00000 0 -12717222.141 16459466.672 -14856076.015 10 0 59342 54000.00000 0 -11972854.238 14623144.626 -17203928.988 10 0 59342 54900.00000 0 -11310382.181 12474509.144 -19219534.588 10 0 59342 55800.00000 0 -10777684.261 10059663.060 -20863790.564 10 0 59342 56700.00000 0 -10413974.474 7434459.398 -22104693.791 10 0 59342 57600.00000 0 -10248066.600 4662431.649 -22917965.411 10 0 59342 58500.00000 0 -10297084.417 1812407.616 -23287534.456 10 0 59342 59400.00000 0 -10565673.220 -1044097.457 -23205869.914 10 0 59342 60300.00000 0 -11045747.748 -3835603.236 -22674153.508 10 0 59342 61200.00000 0 -11716789.763 -6493391.277 -21702287.898 10 0 59342 62100.00000 0 -12546685.853 -8954124.805 -20308737.801 10 0 59342 63000.00000 0 -13493073.501 -11162252.861 -18520204.383 10 0 59342 63900.00000 0 -14505141.749 -13072098.157 -16371136.531 10 0 59342 64800.00000 0 -15525813.004 -14649540.363 -13903085.852 10 0 59342 65700.00000 0 -16494215.543 -15873222.642 -11163915.757 10 0 59342 66600.00000 0 -17348342.761 -16735228.794 -8206878.458 10 0 59342 67500.00000 0 -18027786.108 -17241200.605 -5089577.112 10 0 59342 68400.00000 0 -18476424.382 -17409888.929 -1872833.373 10 0 59342 69300.00000 0 -18644952.889 -17272156.501 1380516.440 10 0 59342 70200.00000 0 -18493142.236 -16869474.692 4606871.300 10 0 59342 71100.00000 0 -17991727.720 -16251978.734 7743134.756 10 0 59342 72000.00000 0 -17123846.194 -15476165.643 10727975.827 10 0 59342 72900.00000 0 -15885957.039 -14602334.931 13503054.019 10 0 59342 73800.00000 0 -14288206.537 -13691883.558 16014181.827 10 0 59342 74700.00000 0 -12354219.494 -12804572.728 18212399.635 10 0 59342 75600.00000 0 -10120327.063 -11995885.020 20054940.486 10 0 59342 76500.00000 0 -7634264.196 -11314585.733 21506065.029 10 0 59342 77400.00000 0 -4953393.108 -10800592.778 22537750.306 10 0 59342 78300.00000 0 -2142529.041 -10483245.241 23130219.750 10 0 59342 79200.00000 0 728538.906 -10380042.851 23272305.556 10 0 59342 80100.00000 0 3587726.812 -10495907.753 22961638.283 10 0 59342 81000.00000 0 6363422.321 -10822997.251 22204662.359 10 0 59342 81900.00000 0 8987223.206 -11341072.573 21016479.544 10 0 59342 82800.00000 0 11396534.950 -12018405.249 19420525.799 10 0 59342 83700.00000 0 13536921.147 -12813180.267 17448089.906 10 0 59342 84600.00000 0 15364111.583 -13675334.823 15137684.941 10 0 59342 85500.00000 0 16845587.531 -14548753.819 12534286.137 10 0 59343 0.00000 0 17961681.915 -15373729.079 9688450.805 10 0 59343 900.00000 0 18706151.917 -16089578.814 6655337.268 10 0 59343 1800.00000 0 19086204.061 -16637318.495 3493642.686 10 0 59343 2700.00000 0 19121972.644 -16962271.233 264478.430 10 0 59343 3600.00000 0 18845476.767 -17016510.864 -2969795.331 10 0 59343 4500.00000 0 18299100.058 -16761036.035 -6146754.938 10 0 59343 5400.00000 0 17533657.697 -16167586.113 -9205097.113 10 0 59343 6300.00000 0 16606131.233 -15220023.812 -12085800.364 10 0 59343 7200.00000 0 15577165.044 -13915227.274 -14733243.258 10 0 59343 8100.00000 0 14508427.725 -12263454.040 -17096259.896 10 0 59343 9000.00000 0 13459947.042 -10288160.594 -19129113.940 10 0 59343 9900.00000 0 12487528.190 -8025283.123 -20792373.778 10 0 59343 10800.00000 0 11640361.811 -5522006.744 -22053673.039 10 0 59343 11700.00000 0 10958920.798 -2835071.099 -22888342.353 10 0 59343 12600.00000 0 10473233.538 -28679.225 -23279900.119 10 0 59343 13500.00000 0 10201606.279 2827907.086 -23220392.125 10 0 59343 14400.00000 0 10149849.381 5662989.007 -22710572.219 10 0 59343 15300.00000 0 10311041.863 8405163.285 -21759918.587 10 0 59343 16200.00000 0 10665846.670 10986054.265 -20386483.012 10 0 59343 17100.00000 0 11183366.250 13342932.794 -18616573.334 10 0 59343 18000.00000 0 11822505.283 15421112.905 -16484272.523 10 0 59343 18900.00000 0 12533785.634 17176025.500 -14030801.122 10 0 59343 19800.00000 0 13261538.730 18574880.761 -11303733.166 10 0 59343 20700.00000 0 13946383.663 19597847.509 -8356079.317 10 0 59343 21600.00000 0 14527885.980 20238697.849 -5245254.232 10 0 59343 22500.00000 0 14947283.336 20504887.998 -2031948.304 10 0 59343 23400.00000 0 15150160.290 20417070.397 1221073.146 10 0 59343 24300.00000 0 15088955.908 20008057.121 4450218.095 10 0 59343 25200.00000 0 14725194.522 19321278.661 7592336.696 10 0 59343 26100.00000 0 14031341.775 18408804.580 10585983.170 10 0 59343 27000.00000 0 12992204.366 17329011.897 13372643.165 10 0 59343 27900.00000 0 11605811.904 16144002.610 15897899.916 10 0 59343 28800.00000 0 9883742.233 14916882.587 18112514.014 10 0 59343 29700.00000 0 7850876.014 13709019.796 19973394.083 10 0 59343 30600.00000 0 5544591.258 12577400.081 21444438.557 10 0 59343 31500.00000 0 3013432.927 11572193.774 22497231.992 10 0 59343 32400.00000 0 315314.991 10734636.382 23111583.132 10 0 59343 33300.00000 0 -2484668.023 10095312.193 23275895.669 10 0 59343 34200.00000 0 -5316726.828 9672911.618 22987366.401 10 0 59343 35100.00000 0 -8109055.647 9473512.185 22252009.254 10 0 59343 36000.00000 0 -10790590.907 9490410.476 21084507.096 10 0 59343 36900.00000 0 -13293735.724 9704508.828 19507896.602 10 0 59343 37800.00000 0 -15556938.074 10085237.330 17553094.429 10 0 59343 38700.00000 0 -17527017.407 10591969.475 15258275.622 10 0 59343 39600.00000 0 -19161145.539 11175869.673 12668117.734 10 0 59343 40500.00000 0 -20428402.537 11782093.426 9832926.104 10 0 59343 41400.00000 0 -21310846.196 12352246.928 6807657.596 10 0 59343 42300.00000 0 -21804053.751 12827002.783 3650861.608 10 0 59343 43200.00000 0 -21917116.284 13148762.631 423558.256 10 0 59343 44100.00000 0 -21672088.440 13264256.085 -2811925.619 10 0 59343 45000.00000 0 -21102918.149 13126968.317 -5993141.313 10 0 59343 45900.00000 0 -20253901.957 12699295.979 -9058702.769 10 0 59343 46800.00000 0 -19177730.595 11954342.292 -11949449.612 10 0 59343 47700.00000 0 -17933205.733 10877276.921 -14609568.067 10 0 59343 48600.00000 0 -16582722.053 9466203.830 -16987649.989 10 0 59343 49500.00000 0 -15189618.049 7732500.105 -19037671.331 10 0 59343 50400.00000 0 -13815504.327 5700610.050 -20719872.545 10 0 59343 51300.00000 0 -12517679.120 3407300.724 -22001525.066 10 0 59343 52200.00000 0 -11346737.447 900406.748 -22857569.685 10 0 59343 53100.00000 0 -10344472.812 -1762886.888 -23271114.439 10 0 59343 54000.00000 0 -9542158.872 -4518156.505 -23233781.833 10 0 59343 54900.00000 0 -8959283.411 -7296161.834 -22745897.390 10 0 59343 55800.00000 0 -8602788.932 -10025481.082 -21816514.024 10 0 59343 56700.00000 0 -8466853.597 -12635252.007 -20463269.457 10 0 59343 57600.00000 0 -8533224.080 -15057906.622 -18712076.751 10 0 59343 58500.00000 0 -8772088.921 -17231786.149 -16596651.244 10 0 59343 59400.00000 0 -9143457.973 -19103526.731 -14157880.455 10 0 59343 60300.00000 0 -9598991.726 -20630114.898 -11443046.906 10 0 59343 61200.00000 0 -10084204.403 -21780524.639 -8504917.445 10 0 59343 62100.00000 0 -10540947.856 -22536865.067 -5400715.882 10 0 59343 63000.00000 0 -10910070.238 -22894988.079 -2190998.957 10 0 59343 63900.00000 0 -11134134.930 -22864528.399 1061541.436 10 0 59343 64800.00000 0 -11160081.741 -22468373.050 4293324.727 10 0 59343 65700.00000 0 -10941714.250 -21741582.235 7441150.152 10 0 59343 66600.00000 0 -10441904.409 -20729807.822 10443459.613 10 0 59343 67500.00000 0 -9634417.684 -19487277.866 13241567.365 10 0 59343 68400.00000 0 -8505278.667 -18074434.645 15780829.764 10 0 59343 69300.00000 0 -7053617.487 -16555328.830 18011729.838 10 0 59343 70200.00000 0 -5291960.159 -14994882.760 19890853.813 10 0 59343 71100.00000 0 -3245950.502 -13456140.850 21381739.643 10 0 59343 72000.00000 0 -953516.072 -11997625.097 22455580.811 10 0 59343 72900.00000 0 1536485.561 -10670908.111 23091772.436 10 0 59343 73800.00000 0 4166081.825 -9518505.766 23278290.418 10 0 59343 74700.00000 0 6870383.716 -8572177.025 23011898.151 10 0 59343 75600.00000 0 9580074.730 -7851700.246 22298179.100 10 0 59343 76500.00000 0 12224085.408 -7364174.460 21151396.978 10 0 59343 77400.00000 0 14732341.797 -7103871.571 19594188.627 10 0 59343 78300.00000 0 17038473.989 -7052642.090 17657097.741 10 0 59343 79200.00000 0 19082373.425 -7180853.932 15377960.213 10 0 59343 80100.00000 0 20812494.565 -7448821.863 12801154.459 10 0 59343 81000.00000 0 22187807.804 -7808665.204 9976732.122 10 0 59343 81900.00000 0 23179325.331 -8206514.229 6959446.332 10 0 59343 82800.00000 0 23771139.361 -8584971.842 3807696.294 10 0 59343 83700.00000 0 23960932.434 -8885727.206 582408.067 10 0 59343 84600.00000 0 23759940.964 -9052212.241 -2654127.853 10 0 59343 85500.00000 0 23192375.423 -9032190.637 -5839440.870 10 0 59344 0.00000 0 22294322.560 -8780172.154 -8912065.237 10 0 59344 900.00000 0 21112175.639 -8259551.828 -11812704.898 10 0 59344 1800.00000 0 19700658.105 -7444386.691 -14485356.581 10 0 59344 2700.00000 0 18120521.553 -6320733.937 -16878372.577 10 0 59344 3600.00000 0 16436012.665 -4887496.451 -18945443.566 10 0 59344 4500.00000 0 14712212.636 -3156737.762 -20646484.239 10 0 59344 5400.00000 0 13012357.976 -1153451.905 -21948405.728 10 0 59344 6300.00000 0 11395252.462 1085205.259 -22825760.563 10 0 59344 7200.00000 0 9912876.718 3511194.587 -23261247.691 10 0 59344 8100.00000 0 8608294.223 6067332.675 -23246067.239 10 0 59344 9000.00000 0 7513941.004 8689422.958 -22780116.942 10 0 59344 9900.00000 0 6650371.083 11308693.736 -21872024.586 10 0 59344 10800.00000 0 6025511.503 13854444.804 -20539013.563 10 0 59344 11700.00000 0 5634459.968 16256794.664 -18806601.485 10 0 59344 12600.00000 0 5459835.849 18449414.955 -16708134.950 10 0 59344 13500.00000 0 5472671.998 20372138.039 -14284166.909 10 0 59344 14400.00000 0 5633811.772 21973327.836 -11581686.401 10 0 59344 15300.00000 0 5895753.664 23211912.692 -8653214.050 10 0 59344 16200.00000 0 6204866.147 24058992.679 -5555780.012 10 0 59344 17100.00000 0 6503878.487 24498951.141 -2349804.229 10 0 59344 18000.00000 0 6734540.593 24530021.215 902098.244 10 0 59344 18900.00000 0 6840336.719 24164281.547 4136361.847 10 0 59344 19800.00000 0 6769134.868 23427080.252 7289738.499 10 0 59344 20700.00000 0 6475656.116 22355911.290 10300561.302 10 0 59344 21600.00000 0 5923655.716 20998791.587 13109976.447 10 0 59344 22500.00000 0 5087720.469 19412209.193 15663116.497 10 0 59344 23400.00000 0 3954603.885 17658731.527 17910189.690 10 0 59344 24300.00000 0 2524041.101 15804377.378 19807462.284 10 0 59344 25200.00000 0 809008.500 13915866.080 21318113.812 10 0 59344 26100.00000 0 -1164582.621 12057861.983 22412948.352 10 0 59344 27000.00000 0 -3358744.449 10290331.606 23070948.628 10 0 59344 27900.00000 0 -5724785.655 8666124.959 23279663.526 10 0 59344 28800.00000 0 -8205139.665 7228882.027 23035423.328 10 0 59344 29700.00000 0 -10735570.122 6011350.500 22343380.795 10 0 59344 30600.00000 0 -13247660.197 5034182.593 21217379.687 10 0 59344 31500.00000 0 -15671481.086 4305258.124 19679655.670 10 0 59344 32400.00000 0 -17938328.520 3819558.396 17760377.592 10 0 59344 33300.00000 0 -19983414.095 3559592.374 15497039.818 10 0 59344 34200.00000 0 -21748400.739 3496353.754 12933718.856 10 0 59344 35100.00000 0 -23183678.902 3590765.715 10120209.564 10 0 59344 36000.00000 0 -24250291.206 3795550.444 7111058.042 10 0 59344 36900.00000 0 -24921428.079 4057443.497 3964509.922 10 0 59344 37800.00000 0 -25183434.783 4319659.404 741393.819 10 0 59344 38700.00000 0 -25036290.302 4524505.145 -2496039.437 10 0 59344 39600.00000 0 -24493540.033 4616032.545 -5685300.567 10 0 59344 40500.00000 0 -23581686.414 4542619.415 -8764847.323 10 0 59344 41400.00000 0 -22339063.398 4259372.435 -11675250.601 10 0 59344 42300.00000 0 -20814241.498 3730252.216 -14360320.400 10 0 59344 43200.00000 0 -19064028.865 2929832.252 -16768171.834 10 0 59344 44100.00000 0 -17151150.093 1844618.282 -18852212.335 10 0 59344 45000.00000 0 -15141697.388 473872.262 -20572032.433 10 0 59344 45900.00000 0 -13102457.998 -1170094.979 -21894184.090 10 0 59344 46800.00000 0 -11098226.886 -3062177.028 -22792832.207 10 0 59344 47700.00000 0 -9189214.643 -5165263.597 -23250266.756 10 0 59344 48600.00000 0 -7428657.120 -7431541.340 -23257265.120 10 0 59344 49500.00000 0 -5860725.578 -9804253.523 -22813296.426 10 0 59344 50400.00000 0 -4518824.542 -12219849.017 -21926562.115 10 0 59344 51300.00000 0 -3424349.145 -14610434.545 -20613869.690 10 0 59344 52200.00000 0 -2585955.268 -16906430.667 -18900339.445 10 0 59344 53100.00000 0 -1999374.955 -19039322.373 -16818947.150 10 0 59344 54000.00000 0 -1647786.853 -20944390.023 -14409908.921 10 0 59344 54900.00000 0 -1502728.004 -22563305.946 -11719917.921 10 0 59344 55800.00000 0 -1525510.133 -23846486.297 -8801246.110 10 0 59344 56700.00000 0 -1669081.433 -24755097.248 -5710727.535 10 0 59344 57600.00000 0 -1880255.042 -25262628.439 -2508642.901 10 0 59344 58500.00000 0 -2102208.859 -25355964.612 742471.959 10 0 59344 59400.00000 0 -2277148.712 -25035907.817 3979068.837 10 0 59344 60300.00000 0 -2349019.172 -24317126.316 7137854.612 10 0 59344 61200.00000 0 -2266143.746 -23227531.433 10157055.809 10 0 59344 62100.00000 0 -1983679.004 -21807108.765 12977652.703 10 0 59344 63000.00000 0 -1465775.275 -20106254.160 15544556.101 10 0 59344 63900.00000 0 -687349.716 -18183686.620 17807701.326 10 0 59344 64800.00000 0 364605.362 -16104028.541 19723036.330 10 0 59344 65700.00000 0 1690235.225 -13935157.770 21253383.635 10 0 59344 66600.00000 0 3276589.878 -11745445.336 22369159.023 10 0 59344 67500.00000 0 5097954.801 -9600996.667 23048933.633 10 0 59344 68400.00000 0 7116730.055 -7563013.035 23279829.829 10 0 59344 69300.00000 0 9284819.125 -5685383.759 23057744.977 10 0 59344 70200.00000 0 11545467.556 -4012608.820 22387401.065 10 0 59344 71100.00000 0 13835472.877 -2578136.546 21282221.594 10 0 59344 72000.00000 0 16087672.282 -1403182.914 19764040.519 10 0 59344 72900.00000 0 18233603.673 -496078.128 17862651.095 10 0 59344 73800.00000 0 20206229.290 147836.182 15615205.193 10 0 59344 74700.00000 0 21942609.151 545758.694 13065476.196 10 0 59344 75600.00000 0 23386414.485 726451.440 10263000.690 10 0 59344 76500.00000 0 24490178.420 728778.067 7262115.971 10 0 59344 77400.00000 0 25217192.440 599820.724 4120912.006 10 0 59344 78300.00000 0 25542972.062 392655.920 900117.584 10 0 59344 79200.00000 0 25456232.913 163883.100 -2338058.758 10 0 59344 80100.00000 0 24959338.443 -28990.626 -5531111.853 10 0 59344 81000.00000 0 24068202.020 -130200.720 -8617425.766 10 0 59344 81900.00000 0 22811648.134 -88300.417 -11537441.313 10 0 59344 82800.00000 0 21230259.279 141445.824 -14234784.468 10 0 59344 83700.00000 0 19374755.686 594949.898 -16657335.746 10 0 59344 84600.00000 0 17303973.802 1297556.568 -18758221.728 10 0 59344 85500.00000 0 15082525.611 2262741.937 -20496710.981 99